カタログに戻る

DAMPE

運用中科学SSO
NORAD 41173·PAYLOAD·🇨🇳 China

打ち上げ Dec 17, 2015 から Jiuquan Satellite Launch Center

Loading…

次のパス (今後24時間)

TLE

最新Source: Space-Track

元期: Sep 14, 2026, 14:03 UTC

1 41173U 15078A   26257.58600486  .00001083  00000-0  38723-4 0  9995
2 41173  97.4592 263.5231 0013408 114.3122 245.9521 15.30976632598222

AllMySatでDAMPEをリアルタイム追跡

Download on the App Store